SCP
0 0 0 0 0 0 0 0 0 0 0 0 0 0 0 0 0 0 0 0 0 0 0 0 0 0 0 0 0 0 0 0 0 0 0 0 0 0 0 0 0 0 0 0
0 0 0 0 0 0 0 0 0 0 0 0 0 0 0 0 0 0 0 0 0 0 1 0 0 0 0 0 0 0 0 0 0 0 0 0 0 0 0 0 0 0 0 0
0 0 0 0 0 0 0 0 0 0 0 0 0 0 0 0 0 0 0 0 0 0 1 0 0 0 0 0 0 0 0 0 0 0 0 0 0 0 0 0 0 0 0 0
0 0 0 0 0 0 0 0 0 0 0 0 0 0 0 0 0 0 0 0 0 0 0 0 0 0 0 0 0 0 0 0 0 0 0 0 0 0 0 0 0 0 0 0
0 0 0 0 0 0 0 0 0 0 0 0 0 0 0 0 0 0 0 0 0 0 0 0 0 0 0 0 0 0 0 0 0 0 0 0 0 0 0 0 0 0 0 0
0 0 0 0 0 0 0 0 0 0 0 0 0 0 0 0 0 0 0 0 0 0 0 1 1 1 0 0 0 0 0 0 0 0 0 0 0 0 0 0 0 0 0 0
0 0 0 0 0 0 0 0 0 0 0 0 0 0 0 0 0 0 0 0 0 1 1 1 1 1 1 0 0 0 0 0 0 0 0 0 0 0 0 0 0 0 0 0
0 0 0 0 0 0 0 0 0 0 0 0 0 0 0 0 0 0 0 0 0 1 1 1 1 1 1 1 0 0 0 0 0 0 0 0 0 0 0 0 0 0 0 0
0 0 0 0 0 0 0 0 0 0 0 0 0 0 0 0 1 1 1 1 1 1 1 1 1 1 1 1 1 0 0 0 0 0 0 0 0 0 0 0 0 0 0 0
0 0 0 0 0 0 0 0 0 0 0 0 0 0 0 1 1 1 1 1 1 1 1 1 1 1 1 1 1 0 0 0 0 0 0 0 0 0 0 0 0 0 0 0
1 1 1 1 1 0 0 0 0 0 0 0 0 0 1 1 1 1 1 1 1 1 1 1 1 1 1 1 1 1 0 0 0 0 0 0 0 0 0 0 0 0 0 0
1 1 1 1 0 0 0 0 0 0 0 0 0 0 1 1 1 1 1 1 1 1 1 1 1 1 1 1 1 1 0 0 0 0 0 0 0 0 0 0 0 0 0 0
1 1 0 0 0 0 0 0 0 0 0 0 0 0 1 1 1 1 1 1 1 1 1 1 1 1 1 1 1 1 1 0 0 0 0 0 0 0 0 0 0 0 0 0
0 0 0 0 0 0 0 0 0 0 0 0 0 0 0 1 1 1 1 1 1 1 1 1 1 1 1 1 1 1 0 0 0 0 0 0 0 0 0 0 0 0 0 0
0 0 0 0 0 0 0 0 0 0 0 0 0 0 0 0 0 1 1 1 1 1 1 1 1 1 1 1 1 1 0 0 0 0 0 0 0 0 0 0 0 0 0 0
0 0 0 0 0 0 0 0 0 0 0 0 0 0 0 0 0 0 0 0 0 0 0 0 0 1 1 1 1 0 0 0 0 0 0 0 0 0 0 0 0 0 0 0
0 0 0 0 0 0 0 0 0 0 0 0 0 0 0 0 0 0 0 0 0 0 0 0 0 0 0 0 0 0 0 0 0 0 0 0 0 0 0 0 0 0 0 0
0 0 0 0 0 0 0 0 0 0 0 0 0 0 0 0 0 0 0 0 0 0 0 0 0 0 0 0 0 0 0 0 0 0 0 0 0 0 0 0 0 0 0 0
0 0 0 0 0 0 0 0 0 0 0 0 0 0 0 0 0 0 0 0 0 0 0 0 0 0 0 0 0 0 0 0 0 0 0 0 0 0 0 0 0 0 0 0
0 0 0 0 0 0 0 0 0 0 0 0 0 0 0 0 0 0 0 0 0 0 0 0 0 0 0 0 0 0 0 0 0 0 0 0 0 0 0 0 0 0 0 0
0 0 0 0 0 0 0 0 0 0 0 0 0 0 0 0 0 0 0 0 0 0 0 0 0 0 0 0 0 0 0 0 0 0 0 0 0 0 0 0 0 0 0 0
0 0 0 0 0 0 0 0 0 0 0 0 0 0 0 0 0 0 0 0 0 0 0 0 0 0 0 0 0 0 0 0 0 0 0 0 0 0 0 0 0 0 0 0
0 0 0 0 0 0 0 0 0 0 0 0 0 0 0 0 0 0 0 0 0 0 0 0 0 0 0 0 0 0 0 0 0 0 0 0 0 0 0 0 0 0 0 0
0 0 0 0 0 0 0 0 0 0 0 0 0 0 0 0 0 0 0 0 0 0 0 0 0 0 0 0 0 0 0 0 0 0 0 0 0 0 0 0 0 0 0 0
0 0 0 0 0 0 0 0 0 0 0 0 0 0 0 0 0 0 0 0 0 0 0 0 0 0 0 0 0 0 0 0 0 0 0 0 0 0 0 0 0 0 0 0
0 0 0 0 0 0 0 0 0 0 0 0 0 0 0 0 0 0 0 0 0 0 0 0 0 0 0 0 0 0 0 0 0 0 0 0 0 0 0 0 0 0 0 0
0 0 0 0 0 0 0 0 0 0 0 0 0 0 0 0 0 0 0 0 0 0 0 0 0 0 0 0 0 0 0 0 0 0 0 0 0 0 0 0 0 0 0 0
Wind_Speed
6 5 10 13 15 14 11 9 8 5 5 7 9 7 7 8 9 10 11 10 9 8 7 6 6 5 4 3 2 2 1 3 2 2 2 3 4 4 4 5 6 5 5 5
10 10 13 16 15 12 11 10 8 7 3 4 7 7 7 8 9 9 10 11 11 10 9 7 6 5 5 4 3 2 3 3 3 2 3 4 4 5 4 4 5 5 5 6
11 10 11 12 10 10 9 7 5 4 2 5 6 6 6 6 7 7 8 9 10 10 9 7 6 5 5 4 4 4 4 4 3 3 4 4 5 4 5 5 5 5 6 6
10 9 11 8 7 5 4 4 3 2 5 5 4 5 5 6 6 6 7 8 9 9 9 8 7 7 6 5 5 5 5 4 3 3 4 4 4 4 4 4 5 5 6 6
9 10 10 8 6 5 4 3 2 2 4 5 5 4 4 7 8 6 5 6 8 8 9 8 7 7 6 5 5 5 5 3 3 3 4 4 5 5 4 4 5 6 6 6
10 10 9 5 4 3 3 3 1 3 3 3 3 2 2 7 8 7 6 6 7 8 8 7 6 6 5 6 5 4 4 3 3 3 4 5 5 5 5 4 5 7 7 6
11 12 6 1 1 1 2 1 4 4 2 1 1 1 5 6 7 7 7 8 7 7 7 7 7 6 5 5 4 3 2 2 3 4 4 6 6 4 5 5 6 6 7 8
9 9 4 5 4 3 2 3 4 2 1 1 2 3 4 6 7 7 8 9 9 6 6 6 6 6 5 5 3 2 3 3 4 4 6 6 4 4 5 5 7 7 7 7
1 1 1 4 3 2 2 3 5 5 4 2 1 1 3 5 7 7 7 7 7 8 7 6 7 6 6 4 3 3 3 4 5 6 6 6 6 6 6 5 6 5 5 5
1 3 4 3 1 0 2 3 5 6 6 5 3 1 2 4 5 5 6 6 6 7 7 6 6 7 6 5 4 4 4 4 5 6 7 7 5 5 6 5 5 5 5 6
1 2 1 4 4 4 5 6 7 7 7 5 4 2 2 4 4 4 4 4 5 4 4 5 5 5 6 5 5 5 5 5 6 7 8 6 6 6 6 6 5 6 6 6
3 3 3 5 7 6 6 6 7 7 8 8 6 4 3 3 4 4 3 3 3 3 3 4 5 5 4 4 4 5 5 6 6 6 6 5 5 6 8 10 10 13 13 10
4 4 4 5 5 7 7 8 8 9 9 8 9 8 6 5 5 4 3 2 2 2 2 2 3 3 3 4 5 5 6 6 6 7 7 6 6 6 6 6 11 14 15 15
5 5 5 7 8 9 9 9 10 10 11 11 10 10 8 7 6 4 3 2 1 0 1 1 2 3 3 3 4 5 7 8 7 7 7 7 7 7 6 6 5 5 9 15
6 6 7 8 8 9 9 10 10 11 11 11 11 10 9 8 7 6 5 5 3 2 2 2 2 3 2 3 3 5 7 7 7 7 7 7 7 8 7 7 6 6 5 4
7 8 8 8 9 9 10 11 11 11 11 11 10 9 8 7 6 6 6 6 5 4 4 3 3 3 3 3 4 5 7 10 10 8 8 8 8 8 7 6 6 5 5 5
7 8 8 8 8 9 10 10 10 10 10 9 9 9 8 8 7 7 6 6 5 5 5 4 5 5 5 5 6 7 8 8 9 9 9 9 8 7 7 6 6 6 5 4
9 9 8 7 7 7 7 8 8 8 7 8 8 8 8 7 7 7 7 6 6 5 4 5 6 7 7 7 6 7 8 8 8 7 7 7 7 7 7 7 7 7 4 4
8 8 7 6 6 6 6 7 7 7 8 8 8 7 7 7 7 7 6 7 7 5 5 6 8 8 8 6 6 6 7 9 9 8 8 7 7 7 6 7 6 5 5 4
6 5 4 4 5 6 6 7 7 7 7 8 8 7 7 7 8 8 8 7 5 4 5 6 7 7 6 6 7 7 8 9 9 8 7 7 7 6 6 6 5 5 5 5
3 3 4 5 6 6 7 8 8 8 7 8 7 8 8 7 8 8 7 8 4 4 6 7 6 5 6 7 8 8 8 8 8 8 7 7 6 6 5 5 5 5 5 5
3 4 5 6 6 7 7 8 8 9 8 8 9 9 9 8 9 8 7 5 4 4 6 7 6 6 8 9 8 9 9 8 8 7 7 6 5 5 5 5 4 5 5 5
4 5 6 7 8 8 9 9 10 9 9 9 9 9 9 7 7 8 8 5 5 5 6 6 5 6 8 9 9 9 9 8 7 6 6 5 4 5 4 5 4 4 4 4
6 7 7 8 9 10 10 10 10 8 10 10 9 8 6 6 6 6 6 5 4 5 7 5 5 7 8 8 8 8 7 6 5 5 5 5 5 5 4 3 4 4 4 5
8 8 9 9 10 9 9 10 10 9 9 7 8 8 7 6 6 7 8 8 7 7 7 5 4 6 7 8 8 7 6 5 5 5 6 5 5 5 5 4 3 4 4 4
8 8 8 8 8 8 9 9 8 7 8 8 8 7 7 7 8 8 7 9 10 7 7 6 5 5 6 7 7 7 6 5 5 5 6 5 5 4 5 5 5 4 4 4
9 8 7 8 8 8 8 8 8 8 8 8 9 9 9 9 9 9 10 8 7 7 6 6 6 6 6 6 6 6 5 5 5 5 5 5 4 4 4 5 4 4 5 5
Wind_Direction
270 232 233 248 254 258 250 254 268 251 224 187 178 179 171 169 165 164 162 163 161 156 160 160 167 169 185 181 164 155 223 259 263 270 282 280 280 283 283 282 286 287 289 286
271 249 249 253 250 253 257 258 261 267 259 128 149 155 162 172 175 174 172 173 171 168 165 168 177 180 175 176 171 185 227 255 262 268 274 273 274 272 277 281 286 285 281 283
282 295 285 269 264 253 252 255 256 243 139 119 139 153 163 170 178 180 179 175 170 166 162 165 173 167 178 183 177 201 226 247 250 255 270 276 286 296 294 293 291 288 285 283
279 288 276 280 293 277 262 252 240 155 135 141 141 139 153 166 171 179 177 170 160 160 159 165 166 168 183 190 191 211 226 240 252 261 273 281 283 283 284 286 286 287 285 285
271 273 274 279 299 296 276 245 239 177 139 131 127 146 180 170 159 167 166 151 147 155 157 159 167 172 180 198 211 222 235 243 261 275 284 285 283 284 285 284 285 283 281 277
258 263 268 267 264 268 273 249 0 109 112 121 160 224 132 141 148 155 151 143 146 157 153 154 161 163 181 209 220 232 249 260 271 274 275 278 278 278 281 282 281 282 283 285
256 264 270 308 263 283 239 56 32 66 72 135 138 66 105 134 146 146 145 147 150 153 151 155 155 159 191 219 229 241 261 267 265 260 260 260 259 260 269 274 278 280 280 276
254 270 293 19 30 44 79 335 315 359 358 26 98 130 150 145 142 149 157 164 164 155 152 152 159 170 197 218 227 235 254 265 269 266 269 275 270 267 267 268 274 272 269 270
194 203 4 351 25 2 12 310 307 324 342 336 281 183 157 147 149 159 164 167 167 162 163 165 170 179 201 209 213 229 246 257 264 267 265 264 261 265 267 262 269 280 288 290
231 183 175 155 143 296 293 311 328 337 343 341 340 349 123 136 154 163 168 165 165 168 175 178 182 187 196 199 202 222 241 252 260 261 261 258 248 259 265 269 274 283 291 293
332 6 181 91 53 7 358 4 357 356 350 345 343 352 100 130 141 148 150 149 160 167 174 179 183 191 199 198 197 223 244 255 262 263 263 256 251 249 254 255 255 256 272 281
69 45 22 34 22 8 5 16 10 7 4 4 5 17 66 96 112 123 135 140 152 170 186 187 185 195 203 200 202 223 245 255 263 270 273 271 269 269 245 238 241 232 235 245
56 43 46 52 30 15 21 26 29 30 28 26 27 31 49 62 74 86 92 103 138 181 195 204 208 207 210 214 216 222 242 258 268 275 281 280 277 276 278 257 239 239 241 243
67 65 52 46 42 33 32 35 39 42 43 40 35 30 37 46 50 50 52 51 37 306 232 242 252 247 239 222 220 232 248 255 256 261 266 271 276 277 276 277 275 263 243 236
78 79 75 66 54 46 42 43 44 43 44 40 38 34 31 32 35 35 30 25 19 349 332 309 283 282 287 268 252 254 260 265 265 270 273 276 278 279 277 277 276 278 281 260
93 85 81 72 59 48 46 45 43 38 37 35 31 28 23 25 29 29 25 17 4 345 333 323 316 322 319 295 283 273 263 260 262 271 274 274 275 277 279 277 276 279 284 284
104 92 78 69 62 51 44 42 39 31 28 27 24 23 20 19 15 16 8 1 344 326 321 329 333 331 317 296 281 277 277 272 252 252 261 269 275 281 283 282 283 283 282 282
85 86 81 69 57 48 37 32 28 22 16 13 12 11 7 7 2 357 350 342 327 320 338 346 344 323 302 291 285 281 282 282 280 276 270 270 276 280 282 281 283 285 284 285
89 83 76 65 52 37 22 13 9 6 3 0 360 359 355 353 350 339 333 325 315 316 342 342 330 312 301 301 299 279 277 280 281 281 280 279 275 273 277 281 283 285 287 289
84 76 66 51 37 22 8 2 355 351 349 346 345 344 339 338 335 328 322 310 313 339 342 335 316 304 306 322 315 296 288 284 284 283 281 282 280 281 283 285 287 293 292 291
73 46 27 16 9 359 355 350 339 331 331 333 330 327 327 325 319 314 308 306 331 4 334 316 304 320 334 332 310 298 294 292 291 288 283 281 280 283 285 291 296 297 296 298
23 9 356 349 343 340 336 329 320 316 319 320 320 321 319 313 311 310 303 304 341 15 335 327 334 351 339 321 307 299 294 291 289 288 287 285 285 286 285 289 289 294 302 304
350 340 330 326 326 323 318 313 309 312 313 314 311 306 304 307 307 305 306 324 342 349 328 327 334 324 315 305 300 298 296 294 296 302 302 299 298 297 299 301 300 299 307 311
319 314 312 313 312 306 302 304 308 304 299 295 291 293 297 295 295 300 312 323 325 316 315 315 293 295 292 292 297 300 301 307 313 317 318 316 310 306 317 324 320 320 323 322
304 302 297 295 294 295 301 298 293 289 290 296 304 312 312 313 315 318 314 310 311 306 312 313 295 291 291 300 305 308 313 328 333 329 319 316 315 322 324 324 324 318 317 319
288 285 287 288 288 286 286 289 296 307 313 314 315 317 316 314 313 308 302 306 312 319 318 320 315 303 308 317 324 330 334 334 330 325 326 326 326 332 331 327 328 326 322 326
287 283 278 278 288 295 304 308 310 310 311 312 316 317 315 311 307 304 304 304 309 317 322 318 318 320 320 328 335 337 335 334 333 332 335 332 331 332 336 335 336 334 330 333